This is the latest recevied weather packets stored in our database for station/object KE8ZLU. If no packets are shown the sender has not sent any weather packets the latest 10 day(s).
| Time | Temp. | Humidity | Pressure | Rain* | Wind** | Luminosity | Snow |
|---|---|---|---|---|---|---|---|
| 1777935361 | 23.33° C | 49% | 1000.1 hPa | 0 mm | - | 68 W/m² | - |
| 1777935058 | 23.33° C | 48% | 1000.2 hPa | 0 mm | - | 96 W/m² | - |
| 1777934754 | 23.33° C | 47% | 1000.2 hPa | 0 mm | - | 175 W/m² | - |
| 1777934452 | 23.33° C | 49% | 1000.2 hPa | 0 mm | - | 110 W/m² | - |
| 1777934149 | 23.33° C | 48% | 999.9 hPa | 0 mm | - | 169 W/m² | - |
| 1777933844 | 23.89° C | 49% | 1000.2 hPa | 0 mm | - | 117 W/m² | - |
| 1777933541 | 23.33° C | 48% | 1000 hPa | 0 mm | - | 234 W/m² | - |
| 1777933238 | 23.33° C | 50% | 1000.2 hPa | 0 mm | - | 143 W/m² | - |
| 1777932936 | 22.78° C | 50% | 1000.3 hPa | 0 mm | - | 213 W/m² | - |
| 1777932632 | 23.33° C | 50% | 1000.4 hPa | 0 mm | - | 94 W/m² | - |
| 1777932329 | 23.89° C | 48% | 1000.2 hPa | 0 mm | - | 79 W/m² | - |
| 1777932026 | 23.33° C | 48% | 1000.3 hPa | 0 mm | - | 308 W/m² | - |
| 1777931722 | 23.89° C | 47% | 1000.6 hPa | 0 mm | - | 315 W/m² | - |
| 1777931420 | 23.89° C | 47% | 1000.7 hPa | 0 mm | - | 310 W/m² | - |
| 1777931116 | 23.89° C | 47% | 1000.6 hPa | 0 mm | - | 325 W/m² | - |
| 1777930812 | 23.89° C | 47% | 1000.7 hPa | 0 mm | - | 105 W/m² | - |
| 1777930508 | 23.33° C | 48% | 1001 hPa | 0 mm | - | 363 W/m² | - |
| 1777930206 | 23.89° C | 48% | 1001.1 hPa | 0 mm | - | 352 W/m² | - |
| 1777929901 | 23.33° C | 49% | 1001 hPa | 0 mm | - | 394 W/m² | - |
| 1777929599 | 23.89° C | 47% | 1001.1 hPa | 0 mm | - | 252 W/m² | - |
| 1777929296 | 23.33° C | 48% | 1001.3 hPa | 0 mm | - | 172 W/m² | - |
| 1777928993 | 23.33° C | 46% | 1000.8 hPa | 0 mm | - | 129 W/m² | - |
| 1777928690 | 23.89° C | 45% | 1001 hPa | 0 mm | - | 441 W/m² | - |
| 1777928387 | 23.33° C | 45% | 1001.3 hPa | 0 mm | - | 448 W/m² | - |
| 1777928084 | 23.33° C | 44% | 1001.3 hPa | 0 mm | - | 353 W/m² | - |
* Rain latest hour (hover to see other rain measurements)
** Current wind speed in m/s (hover to see current wind gust speed)